Lapse_Rate
8.9 8.4 7.8 7.3 7.8 7.7 3.3 1.2 0.9 0.8 1.6 3.9 2.2 2.6 1.8 1.8 2.1 3.7 3.9 3.1 4.1 3.6 3.7 4.0 4.5 5.0 6.1 6.1 6.1 6.2 7.0 8.8 8.9 9.3 9.7 7.1 7.4 7.5 6.7 5.6 5.5 8.2 8.8
9.1 8.9 8.5 7.6 4.1 3.0 1.0 0.1 -0.1 0.7 2.2 2.7 2.3 2.4 3.3 2.6 2.3 3.0 3.4 2.7 2.9 2.6 3.5 4.0 3.6 4.6 5.6 5.8 6.4 6.3 7.6 7.1 9.2 8.9 9.5 9.5 9.0 6.2 6.5 6.5 5.7 6.4 7.3
8.8 8.4 7.7 5.3 2.7 1.1 0.5 -0.2 0.2 1.1 3.0 2.8 2.4 3.5 2.9 2.6 2.4 2.2 2.1 2.6 2.2 3.6 3.0 2.9 2.8 3.7 3.6 2.9 5.1 6.2 6.4 7.2 9.0 9.3 9.3 9.2 9.4 6.8 9.3 8.4 6.6 7.7 7.2
8.6 6.7 6.0 3.6 1.0 0.8 0.2 -0.6 -0.5 0.9 1.8 2.3 2.7 3.2 2.5 1.8 2.9 2.4 2.7 2.4 2.0 2.2 2.2 2.2 2.5 2.6 1.2 0.8 1.1 0.8 4.6 8.3 8.4 9.4 9.3 9.3 9.4 7.4 7.4 8.5 9.5 9.6 9.1
7.6 6.8 3.4 2.2 1.1 0.1 0.0 -1.1 -1.4 -0.6 0.2 0.5 2.1 2.6 3.4 3.2 2.0 2.6 2.2 2.1 2.7 2.5 2.9 3.6 4.1 3.3 1.9 2.2 3.4 3.1 2.7 6.5 9.1 9.1 9.0 9.2 8.8 9.0 5.4 5.4 9.2 9.5 7.5
7.7 6.1 6.4 2.9 1.9 0.8 -0.9 -1.3 -0.6 -0.8 -0.3 -0.1 1.2 1.1 1.5 1.8 1.4 1.5 0.2 0.7 0.7 0.3 0.8 1.4 1.1 0.4 0.5 0.4 0.7 1.3 1.9 3.5 6.7 8.7 6.6 4.5 2.6 3.3 4.8 6.1 6.2 8.7 8.8
7.9 8.1 5.0 1.8 0.5 0.5 0.1 -0.4 -0.7 -0.7 0.0 1.5 2.6 2.2 2.2 2.5 1.3 0.9 0.7 0.3 0.4 0.2 0.7 0.4 0.3 0.6 0.4 0.5 0.4 0.4 0.2 0.4 1.6 3.1 3.5 3.6 3.2 1.8 2.0 4.7 4.7 6.6 6.9
5.4 7.5 3.6 2.0 1.3 0.7 0.3 0.8 0.2 0.5 0.7 1.1 1.7 4.1 4.1 3.8 1.4 1.4 1.4 2.5 2.6 2.5 2.7 2.4 2.4 1.4 1.5 1.2 1.8 1.3 1.2 1.2 1.3 1.6 2.4 2.4 2.2 1.7 2.2 3.0 3.6 6.9 7.2
7.8 8.3 6.7 2.7 1.8 0.5 0.2 0.1 0.5 1.2 1.3 1.3 1.6 3.5 5.2 2.9 2.1 1.4 3.3 4.5 4.0 4.0 4.2 4.5 4.4 3.9 1.3 2.3 4.1 3.8 3.2 1.7 0.2 0.5 1.1 1.4 0.7 0.5 1.3 6.4 7.1 8.7 8.7
8.7 8.7 8.2 6.4 3.8 1.5 1.3 0.5 1.0 1.9 1.9 2.4 2.9 3.3 3.9 3.0 2.0 2.6 5.7 5.3 5.2 5.0 5.2 5.8 4.9 4.6 1.3 2.7 6.2 4.8 3.1 2.1 1.3 1.5 1.5 1.6 1.8 1.5 1.9 3.8 6.8 9.0 8.8
8.3 7.0 6.3 5.0 3.4 2.0 1.8 1.5 1.4 2.3 3.1 3.3 3.4 3.7 3.8 4.4 2.7 2.8 5.7 5.0 5.2 4.6 4.3 3.7 4.0 2.3 2.5 2.9 4.2 4.5 3.6 2.1 2.4 3.6 4.1 4.0 4.0 4.0 4.5 3.6 3.6 5.7 8.3
7.9 6.9 5.2 3.5 2.8 2.4 2.6 2.7 3.2 3.4 4.0 4.1 4.0 4.7 4.3 4.2 4.3 3.3 5.0 6.2 4.8 3.5 3.0 3.5 2.5 2.7 3.0 2.3 3.3 2.1 1.5 2.1 3.7 5.4 5.8 5.2 5.3 5.0 4.4 3.8 3.1 3.6 3.8
5.0 3.8 3.4 2.9 2.8 3.0 3.4 3.7 4.1 4.1 3.9 4.4 5.5 4.5 4.8 5.6 4.7 4.1 3.8 5.2 4.8 4.6 4.2 3.2 2.7 3.4 2.4 2.5 2.1 1.2 1.4 3.5 4.7 5.9 6.1 5.3 4.8 4.0 3.7 3.8 3.4 3.5 3.1
5.4 4.2 3.5 3.6 3.7 3.9 4.3 4.2 4.3 5.1 5.8 6.6 5.8 5.6 6.1 6.0 5.7 5.5 6.3 4.8 4.8 5.0 4.0 4.0 4.3 3.7 3.7 3.6 2.3 2.2 4.0 4.5 6.0 7.0 6.3 5.5 4.6 5.2 6.7 5.9 6.8 6.7 8.4
4.8 5.1 5.3 5.9 5.6 5.7 6.2 5.9 6.2 7.4 8.2 6.3 5.6 5.7 5.5 6.3 6.1 5.0 5.0 4.2 5.4 5.3 5.0 5.6 6.4 6.8 7.3 6.1 4.8 4.5 5.1 4.3 5.2 5.3 5.2 5.9 7.9 7.7 8.2 6.9 6.5 8.3 9.1
5.1 6.5 6.5 7.1 7.0 7.5 7.1 6.9 5.5 5.7 5.3 5.1 4.2 3.9 4.5 5.2 5.5 4.9 3.7 4.8 5.8 5.3 6.2 7.2 8.1 8.5 8.5 8.5 8.7 7.5 7.3 5.8 8.0 5.9 6.8 8.5 9.2 9.3 9.4 8.9 8.4 9.1 9.1
8.5 7.5 7.6 7.4 8.0 7.9 7.0 6.6 6.5 6.1 5.6 4.8 3.8 3.8 3.8 4.8 4.6 3.9 5.2 5.6 5.8 5.7 7.8 8.5 8.6 8.5 8.8 9.1 9.1 9.0 8.8 8.7 7.9 7.5 8.0 8.7 9.4 9.6 6.9 9.4 9.2 9.0 9.2
5.5 4.9 7.7 8.3 7.6 7.3 7.1 6.9 6.9 6.5 6.6 5.8 4.4 3.7 4.2 4.6 4.7 5.7 7.5 7.5 6.0 6.3 9.1 8.7 8.7 8.8 9.2 9.3 9.5 9.4 9.5 9.3 7.6 8.8 8.5 8.4 8.7 9.5 9.4 9.4 9.4 8.8 9.2
5.5 4.8 5.0 5.9 6.7 6.5 6.2 6.6 6.3 6.1 5.9 5.5 4.9 4.5 5.1 5.5 5.6 6.6 6.3 6.2 5.8 6.8 8.9 9.0 9.2 9.2 9.3 9.6 9.4 9.3 9.0 8.4 8.2 8.3 8.3 8.5 9.0 9.5 9.3 9.4 9.1 6.5 6.1
4.4 3.4 4.2 5.1 4.9 5.8 6.4 5.8 6.1 6.4 6.3 5.9 5.5 5.4 5.2 5.8 7.2 7.9 7.9 8.0 7.7 6.6 7.8 9.2 9.3 9.4 9.3 9.4 9.2 8.9 9.0 9.0 9.0 9.1 8.9 9.2 9.3 9.5 9.4 9.4 9.4 9.3 9.4
4.9 4.0 3.7 3.9 4.4 5.1 5.6 5.7 5.6 5.4 5.8 5.8 6.0 5.5 4.3 5.3 7.4 8.0 8.1 7.8 8.0 8.1 7.9 9.3 9.4 9.3 9.3 9.3 9.4 9.2 9.3 9.1 9.3 9.3 9.3 9.4 9.3 9.4 9.6 9.6 9.6 9.6 9.5
5.9 5.3 4.7 4.7 4.6 4.8 5.3 5.5 5.0 5.8 6.3 6.2 7.2 5.6 4.4 5.4 6.8 7.6 8.0 7.9 7.5 8.5 9.3 8.7 9.3 9.4 9.3 9.1 9.0 8.6 9.1 9.1 9.2 9.3 9.3 9.4 9.5 9.6 9.6 9.6 9.5 9.5 9.5
5.8 6.1 6.0 6.3 5.8 5.0 4.5 5.4 5.5 5.4 5.7 6.0 7.0 5.9 5.1 5.8 6.2 6.6 6.5 6.8 7.1 7.4 8.7 8.9 7.9 8.6 8.1 7.0 7.1 8.2 9.1 9.0 9.2 9.1 9.3 9.3 9.5 9.6 9.6 9.5 9.5 9.4 9.4
5.8 5.7 5.9 5.9 5.2 5.1 4.5 4.6 5.2 5.2 5.4 5.6 6.0 5.9 5.3 6.1 6.3 6.2 5.9 5.8 5.7 6.0 7.1 6.9 6.7 6.9 6.1 5.8 6.2 7.0 8.8 8.5 8.3 8.0 8.1 9.4 9.5 9.5 9.6 9.5 9.5 9.4 9.4
6.9 6.0 5.7 5.6 5.1 4.9 4.7 4.8 5.2 5.5 5.1 5.2 5.4 5.6 5.4 5.4 6.4 6.3 5.8 5.9 5.9 6.4 6.4 5.6 5.9 5.4 5.3 5.7 5.7 5.7 6.5 5.5 5.6 5.9 6.4 8.3 9.5 9.4 9.5 9.5 9.5 9.6 9.4
5.5 5.6 5.7 5.7 5.5 5.2 5.0 5.0 5.3 5.8 5.5 5.3 5.5 5.4 5.1 5.1 5.4 5.6 5.5 5.6 5.2 5.1 4.7 4.6 4.9 4.7 4.4 5.0 5.0 5.0 3.9 4.1 4.7 5.1 6.0 7.4 9.3 9.4 9.4 9.4 9.4 9.5 9.4
Wind_Speed
17 15 14 11 13 16 14 14 13 14 15 12 13 13 12 11 11 11 12 12 11 10 9 9 8 8 6 5 5 4 4 2 4 4 3 4 4 3 4 5 3 2 7
16 17 16 12 11 11 12 14 15 15 14 14 12 10 12 10 11 11 12 11 11 11 11 11 10 7 9 7 5 5 3 1 3 8 4 4 3 3 3 4 4 2 6
12 13 14 15 13 14 14 14 14 15 15 13 13 14 13 12 14 11 11 12 10 11 11 10 9 10 9 6 7 6 4 3 2 4 5 3 3 3 2 3 3 1 2
12 11 13 15 14 14 16 16 16 16 17 16 15 15 14 13 14 14 14 13 12 10 10 10 10 10 10 10 7 5 2 4 5 4 4 3 1 3 3 4 1 2 2
12 16 12 9 11 13 15 17 18 17 16 16 14 13 15 13 10 14 13 14 15 13 11 10 10 11 13 10 7 7 6 4 4 4 4 3 2 2 4 3 3 2 2
15 14 13 13 11 11 12 12 13 14 16 17 16 16 16 10 17 18 14 11 11 12 10 8 12 16 14 15 15 11 7 3 3 4 4 4 1 2 4 3 4 4 1
13 14 15 14 13 12 11 13 14 16 17 16 15 16 17 15 22 23 22 12 12 12 12 12 11 9 15 12 15 17 16 14 9 5 6 4 3 3 2 3 4 3 3
14 14 14 15 16 15 15 15 14 14 16 15 16 14 12 12 25 25 23 16 14 15 15 16 15 16 14 14 13 11 10 8 9 9 6 5 4 3 1 2 2 3 4
13 14 15 15 15 16 16 15 14 13 13 14 14 16 14 13 24 26 19 14 14 15 14 15 15 16 20 19 14 13 12 9 13 13 10 9 8 5 4 5 1 2 1
10 11 13 14 13 14 14 15 13 12 12 11 13 14 17 15 24 25 15 8 13 10 13 13 13 14 21 19 13 13 11 11 10 9 8 7 5 5 5 5 3 2 3
8 8 10 12 11 12 12 11 13 13 13 14 15 13 15 17 18 24 20 11 10 10 9 10 9 20 21 17 9 10 10 11 9 6 5 5 4 3 3 5 5 4 3
3 7 9 7 7 9 12 11 14 14 15 14 15 13 12 15 24 25 23 13 17 10 11 9 10 22 21 16 12 15 20 14 7 6 5 5 4 3 3 3 3 3 4
4 5 6 7 9 10 13 13 11 14 13 14 13 13 13 13 13 27 24 19 17 9 8 13 21 22 20 15 17 20 15 7 7 6 5 5 4 4 3 4 4 3 4
5 5 6 8 9 9 8 10 11 12 12 13 13 12 12 12 12 13 11 11 15 10 13 13 15 15 14 12 12 10 7 6 6 5 5 4 5 4 3 2 2 1 1
7 6 6 5 8 10 10 11 11 13 13 12 11 12 13 12 13 18 17 12 11 12 14 12 11 11 11 10 9 9 7 7 7 6 6 6 5 5 4 3 2 2 1
7 6 6 6 6 8 7 6 5 7 13 14 17 13 10 15 23 24 24 23 22 23 12 12 11 11 11 11 10 9 8 9 7 7 6 6 6 5 5 4 2 1 1
6 7 6 7 8 7 7 8 8 10 13 14 18 19 20 19 27 28 27 25 24 22 11 11 11 10 10 11 10 10 9 8 9 7 6 6 5 5 4 4 3 2 1
5 5 6 6 7 8 8 7 7 10 10 10 14 16 20 24 25 27 26 24 13 15 12 11 10 11 11 11 11 10 10 9 8 8 7 7 6 6 5 5 4 2 1
7 6 5 5 6 7 7 8 8 9 9 9 9 11 16 23 26 26 27 12 13 13 11 11 11 11 11 10 10 10 10 10 9 8 7 7 7 6 6 5 4 1 2
7 8 8 7 7 7 8 8 8 9 9 10 10 10 11 14 15 16 14 13 12 11 12 12 12 11 11 11 10 9 10 10 10 9 8 8 7 7 6 6 5 5 4
6 7 10 8 8 8 8 9 8 9 9 9 10 11 19 14 14 14 14 13 11 12 11 12 11 10 10 10 11 11 11 10 10 10 9 8 8 7 6 6 6 5 4
6 7 8 8 8 9 9 9 9 9 10 10 10 12 20 11 12 12 13 12 11 11 10 10 10 11 11 12 11 10 11 12 11 10 9 9 8 8 7 6 6 5 5
5 6 8 8 7 9 8 9 10 9 10 10 11 11 12 11 12 12 12 11 11 10 9 9 9 10 14 14 15 15 11 11 11 13 10 10 9 8 7 7 6 6 5
6 6 7 7 6 7 8 9 9 12 10 11 11 11 12 12 11 12 11 10 11 10 11 11 11 11 14 15 17 17 17 17 17 18 17 10 9 9 8 7 7 7 5
6 6 7 6 7 8 8 8 9 10 10 11 11 11 11 12 11 11 11 10 10 10 11 12 14 18 19 20 19 19 18 19 18 18 18 15 10 11 9 7 7 7 7
5 7 7 6 7 7 8 8 9 9 10 10 10 11 11 12 12 11 11 11 11 11 12 13 17 21 22 20 21 20 21 21 19 20 17 14 9 8 8 8 10 6 7
Wind_Direction
195 190 191 186 193 180 166 152 141 131 138 163 151 154 156 163 171 171 172 165 166 152 152 151 149 153 140 143 133 119 127 149 133 129 134 125 97 61 60 64 62 48 57
201 195 187 176 138 154 142 137 136 139 144 156 149 154 165 171 172 180 173 167 162 161 161 154 156 153 148 139 118 109 107 130 165 143 155 140 83 55 57 65 67 41 32
202 192 173 168 164 151 146 142 144 149 146 155 153 161 175 179 180 175 170 164 160 164 159 154 155 153 141 114 117 134 125 151 125 160 135 133 122 41 81 110 56 94 26
196 178 187 182 165 158 153 154 156 161 157 164 167 170 173 176 185 177 171 155 161 157 149 153 152 153 136 126 113 69 104 135 131 134 127 128 101 86 42 30 28 65 18
181 194 176 174 165 160 169 170 163 166 167 162 167 165 174 180 178 180 168 161 164 151 150 153 152 133 122 128 134 127 146 160 153 135 129 133 57 60 51 19 336 301 135
191 195 189 178 167 173 161 162 162 163 165 155 164 166 173 174 179 166 150 161 147 139 138 130 129 125 123 110 108 97 88 106 118 127 103 95 109 57 43 17 9 343 317
206 201 181 169 164 164 164 161 163 169 167 170 171 174 173 172 171 162 157 147 148 145 150 147 136 135 128 131 120 112 97 83 70 90 117 114 123 67 21 351 26 1 356
205 200 185 183 176 169 170 181 174 172 174 173 168 177 179 174 165 161 159 157 156 156 160 158 155 152 156 145 144 133 125 116 107 99 108 116 99 101 32 4 342 285 175
209 205 198 187 182 174 173 178 177 173 173 172 168 168 167 166 164 158 163 164 164 164 168 172 168 160 155 166 157 149 136 128 113 106 109 110 94 65 5 254 50 0 326
220 214 203 199 184 180 179 175 176 176 166 159 159 159 156 156 165 162 168 168 164 164 164 164 169 159 165 185 163 151 153 145 133 140 143 126 104 76 37 38 4 31 355
220 207 184 187 179 175 173 168 166 165 157 154 151 153 149 156 164 163 191 171 166 163 160 155 164 149 170 183 162 163 154 138 137 152 160 146 128 105 73 78 48 25 15
225 200 182 163 154 157 158 161 163 158 154 155 152 152 156 163 164 170 187 178 170 167 163 161 155 167 170 161 170 134 133 138 150 173 163 147 141 126 125 106 85 72 60
131 118 138 140 146 156 161 163 163 164 163 164 164 165 164 166 164 170 180 173 173 160 158 151 153 163 154 160 150 143 143 152 162 178 166 150 141 127 168 178 174 198 201
107 111 134 150 155 159 161 165 165 172 175 175 171 165 161 160 163 166 173 164 169 157 148 147 159 156 161 147 148 150 156 161 176 171 159 144 153 178 172 179 166 144 220
127 137 146 155 167 166 173 176 182 190 189 172 167 159 159 165 173 165 166 164 168 155 153 155 165 166 163 162 159 169 162 166 178 164 160 172 179 180 179 181 176 185 219
135 152 157 160 173 179 163 130 97 145 158 164 156 159 159 158 157 161 166 171 169 158 162 172 173 175 177 167 171 174 177 184 180 172 174 182 184 190 184 176 186 193 242
138 155 161 164 170 169 163 154 144 136 144 151 147 148 150 155 162 171 172 168 166 170 179 183 182 179 181 179 179 182 183 186 170 180 181 180 187 187 195 180 177 198 182
149 144 169 181 175 176 172 168 163 159 160 160 162 155 162 166 169 170 168 162 169 192 194 188 186 186 190 184 186 184 182 174 182 187 183 179 185 193 194 191 188 196 200
169 171 175 174 189 181 171 169 167 163 162 156 153 168 171 173 176 175 166 173 178 192 197 192 194 195 190 187 187 185 182 177 186 185 180 186 189 196 195 188 155 87 262
201 171 175 176 171 183 183 174 174 175 169 166 169 169 167 169 181 183 183 184 183 190 194 201 197 196 191 190 180 183 184 181 184 188 180 189 191 202 188 188 199 192 200
214 195 190 176 184 189 188 188 183 176 175 177 175 176 175 177 181 185 186 189 187 189 191 201 196 193 191 190 186 185 190 186 188 190 182 185 191 200 198 186 187 206 203
204 206 205 202 191 193 195 190 182 184 185 183 179 175 175 181 182 185 188 188 186 194 188 193 197 193 194 190 189 184 189 189 186 187 185 185 185 200 194 192 196 196 189
221 208 213 217 197 197 192 196 193 188 185 183 177 172 180 186 183 187 187 184 182 191 190 188 192 188 187 187 186 189 190 190 184 185 184 184 185 193 193 192 194 203 201
220 217 212 214 197 195 196 198 197 195 187 184 180 180 185 190 187 187 183 181 182 186 183 183 187 181 180 179 181 187 190 184 181 182 184 182 188 185 189 195 191 197 192
227 214 213 209 198 199 200 202 199 196 193 191 188 186 186 188 188 184 181 182 179 178 179 179 183 179 178 178 177 178 177 172 172 175 181 182 187 181 196 191 193 187 201
244 230 222 211 204 201 204 204 205 198 197 195 195 191 185 187 187 183 181 174 175 176 172 180 179 173 170 172 169 164 158 162 163 169 174 179 180 181 186 196 190 198 188